Regional Weather Roundup
Issued by NWS

Home | Current Version | Previous Version | Graphics & Text | Print | Product List | Glossary On
Versions: 1 2 3 4 5 6 7 8 9 10 11 12 13 14 15 16 17 18 19 20 21 22 23 24 25 26 27 28 29 30 31 32 33 34 35 36 37 38 39 40 41 42 43 44 45 46 47 48 49 50
856
ASUS43 KLOT 241509
RWRIL

ILLINOIS REGIONAL WEATHER ROUNDUP
NATIONAL WEATHER SERVICE CHICAGO/ROMEOVILLE IL
1000 AM CDT THU MAY 24 2018

NOTE: "FAIR" INDICATES FEW OR NO CLOUDS BELOW 12,000 FEET WITH NO
SIGNIFICANT WEATHER AND/OR OBSTRUCTIONS TO VISIBILITY.

* THESE STATIONS ARE NOT UNDER NWS QUALITY CONTROL. THEY ALSO MAY NOT
  REPORT WEATHER SUCH AS PRECIPITATION OR FOG.

ILZ001-002-007-009-015-016-024-241600-
NORTHWEST ILLINOIS

CITY           SKY/WX    TMP DP  RH WIND       PRES   REMARKS
MOLINE         FAIR      81  62  52 S7        30.13F HX  82
STERLING*      FAIR      78  60  53 SE8       30.16F
SAVANNA*       FAIR      75  60  59 SW3       30.15F
$$

ILZ003-004-008-010-011-017-018-241600-
NORTH CENTRAL ILLINOIS

CITY           SKY/WX    TMP DP  RH WIND       PRES   REMARKS
ROCKFORD       FAIR      76  57  51 S13       30.18F
FREEPORT*      FAIR      76  58  54 S9        30.18F
ROCHELLE*      FAIR      77  58  52 S12       30.18F
DE KALB*       FAIR      75  61  61 S12       30.20F
PERU*          FAIR      80  61  53 S12       30.18F HX  81
$$

ILZ005-006-012>014-019>023-241600-
NORTHEAST ILLINOIS

CITY           SKY/WX    TMP DP  RH WIND       PRES   REMARKS
CHICAGO-OHARE  FAIR      77  53  43 S9        30.18F
CHICAGO-MIDWAY FAIR      78  55  44 S8        30.19F
AURORA         FAIR      76  60  57 S8        30.19F
LANSING*       FAIR      76  61  58 S8        30.21F
JOLIET*        FAIR      78  59  52 SE7       30.19F
WAUKEGAN       FAIR      74  59  59 SE8       30.18F
DUPAGE AIRPORT FAIR      76  58  53 S8        30.18F
KANKAKEE*      FAIR      77  55  45 SE9       30.20F
WHEELING       FAIR      77  56  48 S8        30.20F
MORRIS*        FAIR      77  58  52 S8        30.18F
ROMEOVILLE*    FAIR      76  58  53 S10       30.19F
NORTHERLY ISL    N/A     65  56  72 SE2         N/A
$$

LMZ740>746-241600-
SOUTHERN LAKE MICHIGAN

STATION/POSITION SKY/WX   TEMP    WIND        PRES    VSBY  WAVE
                          AIR SEA DIR/SP/G                  HT/PER
                          (F)     (DEG/KT/KT) (MB)    (MI)  (FT/S)
SOUTHERN BUOY              50 40  140/  6/  6 1023.3F         0
WILMETTE HARBOR            56 53  120/  6/  6   N/A           0
HARRISON CRIB              67     140/ 13/ 13   N/A
BURNHAM HARBOR             66     130/  3/  4   N/A
CALUMET HARBOR             76     170/  5/  7 1022.0F
BURNS HARBOR               75     180/  7/ 11 1023.4F
MICHIGAN CITY              73     180/  9/ 11   N/A
MICHIGAN CITY 6N           68 59  140/  2/  2   N/A           0
ST. JOSEPH                 65 56  170/  2/  2 1023.2          0
$$

ILZ025>027-034>036-040-047-049-050-058-095>099-241600-
WEST-CENTRAL ILLINOIS

CITY           SKY/WX    TMP DP  RH WIND       PRES   REMARKS
QUINCY         SUNNY     81  62  52 S8        30.14F HX  82
GALESBURG*     FAIR      79  59  50 SW9       30.17S HX  80
MACOMB*        SUNNY     80  60  49 S9        30.18S HX  81
JACKSONVILLE*  MOSUNNY   79  62  55 S8        30.16S HX  80
PITTSFIELD*    SUNNY     80  65  60 SE7       30.16F HX  81
$$

ILZ028>032-037-038-041>044-048-051>054-059>061-241600-
CENTRAL ILLINOIS

CITY           SKY/WX    TMP DP  RH WIND       PRES   REMARKS
PONTIAC        FAIR      80  56  42 S10       30.19F HX  80
BLOOMINGTON    FAIR      80  58  46 S13       30.19F HX  80
DECATUR        FAIR      79  58  48 SE8       30.18F HX  80
PEORIA         FAIR      79  62  56 S10       30.16F HX  80
LACON*         FAIR      78  61  56 S7        30.16F
LINCOLN*       FAIR      81  60  48 S6        30.17F HX  82
SPRINGFIELD    FAIR      82  63  52 S10       30.17F HX  83
TAYLORVILLE    FAIR      78  62  57 SE9       30.17F
$$

ILZ033-039-045-046-055>057-062-063-241600-
EAST-CENTRAL ILLINOIS

CITY           SKY/WX    TMP DP  RH WIND       PRES   REMARKS
CHAMPAIGN      FAIR      79  56  45 S12       30.20F HX  80
DANVILLE*      FAIR      75  59  56 S6        30.18F
RANTOUL*       FAIR      79  57  45 S8        30.20F HX  80
MATTOON        FAIR      75  63  66 SE8       30.19F
PARIS*         FAIR      77  60  54 SE8       30.20F
$$

ILZ079-100>102-241600-
SOUTHWEST ILLINOIS

CITY           SKY/WX    TMP DP  RH WIND       PRES   REMARKS
ALTON          SUNNY     79  66  65 SE6       30.16F HX  81
BELLEVILLE     MOSUNNY   79  66  63 SE6       30.14F HX  81
CAHOKIA*       SUNNY     80  65  59 SE6       30.15F HX  82
SPARTA*        MOSUNNY   78  67  70 SE6       30.17F HX  80
$$

ILZ064>066-069>071-074>076-080>082-084>086-088>090-092>094-241600-
SOUTH-CENTRAL ILLINOIS

CITY           SKY/WX    TMP DP  RH WIND       PRES   REMARKS
CARBONDALE     FAIR      78  66  66 S5        30.16F HX  80
CAIRO*         FAIR      79  68  69 CALM      30.14F HX  81
EFFINGHAM*     FAIR      78  60  53 E6        30.20F HX  80
MARION         MOSUNNY   77  66  69 SE9       30.17F
MT. VERNON     FAIR      80  64  58 E8        30.17F HX  82
CENTRALIA*     SUNNY     79  64  60 SE6       30.16F HX  81
SALEM*         FAIR      80  62  54 SE3       30.18S HX  81
METROPOLIS*    FAIR      80  66  61 E5        30.15F HX  82
$$

ILZ067-068-072-073-078-083-087-091-241600-
SOUTHEAST ILLINOIS

CITY           SKY/WX    TMP DP  RH WIND       PRES   REMARKS
LAWRENCEVILLE  FAIR     N/A N/A N/A SE7       30.18F
FLORA*         FAIR      80  62  54 E6        30.18F HX  81
FAIRFIELD*     FAIR      78  61  55 E3        30.16F HX  80
HARRISBURG*    FAIR      78  66  66 SE6       30.17S HX  80
ROBINSON*      FAIR      76  61  59 E7        30.20F
CARMI*         FAIR      79  62  56 E5        30.16F HX  81
$$

ABBREVIATIONS USED IN REMARKS
   TC - TEMPERATURE IN CELSIUS
  WCI - WIND CHILL INDEX
   HX - HEAT INDEX
  VSB - VISIBILITY
$$





USA.gov is the U.S. government's official web portal to all federal, state and local government web resources and services.